Location: Allison Elementary School
(34.0784°N, 117.7317°W)
Time: 18:29:08
(UTC+00:00)

Sich 1 - Pass Details

Date: 15 November 2019
Orbit: 595 x 625 km, 82.5° (Epoch: 12 December)

Event Time Altitude Azimuth Distance (km) Brightness Sun altitude
Rises 01:52:55 0° 356° (N) 2,866 6.4 -13.7°
Reaches altitude 10° 01:55:08 10° 358° (N) 1,963 5.5 -14.1°
Maximum altitude 01:59:29 72° 83° (E) 646 2.9 -15.0°
Drops below altitude 10° 02:03:49 10° 168° (SSE) 1,968 5.6 -15.9°
Sets 02:06:03 0° 170° (S) 2,874 6.5 -16.3°
